TimeEDT,TemperatureF,Dew PointF,Humidity,Sea Level PressureIn,VisibilityMPH,Wind Direction,Wind SpeedMPH,Gust SpeedMPH,PrecipitationIn,Events,Conditions,WindDirDegrees,DateUTC
12:53 AM,35.1,28.9,78,30.48,10.0,ESE,6.9,-,N/A,,Clear,120,2013-04-22 04:53:00
1:53 AM,33.1,28.0,82,30.46,10.0,East,4.6,-,N/A,,Clear,100,2013-04-22 05:53:00
2:53 AM,33.1,28.0,82,30.44,10.0,Calm,Calm,-,N/A,,Clear,0,2013-04-22 06:53:00
3:53 AM,32.0,28.0,85,30.43,10.0,NNE,3.5,-,N/A,,Clear,30,2013-04-22 07:53:00
4:53 AM,30.0,28.0,92,30.42,10.0,NE,3.5,-,N/A,,Clear,40,2013-04-22 08:53:00
5:53 AM,30.0,28.0,92,30.40,10.0,NE,3.5,-,N/A,,Clear,50,2013-04-22 09:53:00
6:53 AM,30.0,28.0,92,30.41,8.0,NE,3.5,-,N/A,,Clear,40,2013-04-22 10:53:00
7:53 AM,34.0,32.0,92,30.42,6.0,Calm,Calm,-,N/A,,Clear,0,2013-04-22 11:53:00
8:53 AM,41.0,37.0,86,30.41,10.0,ESE,5.8,-,N/A,,Clear,110,2013-04-22 12:53:00
9:53 AM,45.0,34.0,65,30.40,10.0,ESE,4.6,-,N/A,,Clear,110,2013-04-22 13:53:00
10:53 AM,48.9,35.1,59,30.40,10.0,ESE,3.5,-,N/A,,Clear,120,2013-04-22 14:53:00
11:53 AM,54.0,35.1,49,30.38,10.0,East,6.9,-,N/A,,Clear,100,2013-04-22 15:53:00
12:53 PM,55.9,28.0,34,30.36,10.0,South,6.9,-,N/A,,Clear,180,2013-04-22 16:53:00
1:53 PM,59.0,27.0,29,30.33,10.0,South,10.4,16.1,N/A,,Clear,190,2013-04-22 17:53:00
2:53 PM,60.1,26.1,27,30.30,10.0,South,9.2,-,N/A,,Clear,170,2013-04-22 18:53:00
3:53 PM,61.0,28.9,30,30.27,10.0,SSE,11.5,-,N/A,,Clear,160,2013-04-22 19:53:00
4:53 PM,61.0,33.1,35,30.26,10.0,Variable,5.8,-,N/A,,Clear,0,2013-04-22 20:53:00
5:53 PM,61.0,33.1,35,30.24,10.0,ESE,11.5,-,N/A,,Clear,120,2013-04-22 21:53:00
6:53 PM,57.9,30.9,36,30.22,10.0,SE,12.7,-,N/A,,Clear,140,2013-04-22 22:53:00
7:53 PM,54.0,30.0,40,30.22,10.0,SE,6.9,-,N/A,,Clear,130,2013-04-22 23:53:00
8:53 PM,48.9,32.0,52,30.23,10.0,SE,11.5,-,N/A,,Clear,130,2013-04-23 00:53:00
9:53 PM,46.0,35.1,66,30.23,10.0,ESE,8.1,-,N/A,,Clear,110,2013-04-23 01:53:00
10:53 PM,45.0,36.0,71,30.23,10.0,East,5.8,-,N/A,,Clear,100,2013-04-23 02:53:00
11:53 PM,43.0,35.1,74,30.21,10.0,East,4.6,-,N/A,,Clear,80,2013-04-23 03:53:00